Regional Weather Roundup
Issued by NWS

Home | Current Version | Previous Version | Text Only | Print | Product List | Glossary On
Versions: 1 2 3 4 5 6 7 8 9 10 11 12 13 14 15 16 17 18 19 20 21 22 23 24 25 26 27 28 29 30 31 32 33 34 35 36 37 38 39 40 41 42 43 44 45 46 47 48 49 50
000
ASUS43 KMPX 220710
RWRMN
WEATHER ROUNDUP FOR MINNESOTA
NATIONAL WEATHER SERVICE TWIN CITIES/CHANHASSEN MN
100 AM CST SUN JAN 22 2017


NOTE: "FAIR" INDICATES FEW OR NO CLOUDS BELOW 12,000 FEET WITH NO
SIGNIFICANT WEATHER AND/OR OBSTRUCTIONS TO VISIBILITY. N/A MEANS
CURRENT SKY AND/OR WEATHER CONDITIONS ARE NOT AVAILABLE.

MNZ060>063-068>070-220800-
   Twin Cities Metro

CITY           SKY/WX    TMP DP  RH WIND       PRES   REMARKS
TWIN CITIES    CLOUDY    36  35  96 NW6       29.55R FOG
ST PAUL        CLOUDY    34  34 100 MISG      29.56S FOG
CRYSTAL        CLOUDY    35  33  92 NW5       29.55R FOG     WCI  31
BLAINE         FOG       37  37 100 NW3       29.55S VSB 1/4
LAKEVILLE      FOG       34  34 100 NW3       29.55R VSB 1/2
EDEN PRAIRIE   FOG       35  34  96 NW5       29.55R VSB 1/2 WCI  31
SOUTH ST PAUL  CLOUDY    36  36  99 CALM      29.55R FOG
LAKE ELMO      FOG       34  34 100 CALM      29.55S VSB 1
$$
MNZ001>005-007-008-013>017-022>024-027-028-220800-
   Northwest Minnesota

CITY           SKY/WX    TMP DP  RH WIND       PRES   REMARKS
BEMIDJI        CLOUDY    33  33 100 CALM      29.57S FOG
HALLOCK        DRIZZLE   34  34 100 CALM      29.60R
ROSEAU         HAZE      34  28  80 CALM      29.59S VSB 1/4
WARROAD        FOG       34  28  80 CALM      29.60S VSB 3/4
THIEF RVR FALL CLOUDY    33  32  96 SE3       29.60  FOG
CROOKSTON      MIX PCPN  34  34 100 CALM      29.61R VSB 1/2
FOSSTON        FOG       32  32 100 CALM      29.60R VSB 3/4
DETROIT LAKES  FOG       34  34 100 CALM      29.59S VSB 1/2
MOORHEAD       FOG       34  34 100 CALM      29.61R VSB 1/4
PARK RAPIDS    FOG       35  32  88 CALM      29.57R VSB 3/4
MAHNOMEN       FOG       33  33  99 SW3       29.59R VSB 1
$$
MNZ006-009>011-018-025>026-220800-
   North Central Minnesota

CITY           SKY/WX    TMP DP  RH WIND       PRES   REMARKS
BAUDETTE       FOG       33  33 100 CALM      29.59R VSB 1/4
FLAG ISLAND    FOG       34  34 100 CALM      29.60S VSB 1/2
INTL FALLS     FOG       34  33  96 E3        29.59R VSB 1/2
WASKISH        FOG       34  34 100 CALM      29.59R VSB 1/2
BIG FORK       FOG       34  34 100 CALM      29.57S VSB 1/2
LONGVILLE      FOG       34  34 100 CALM      29.57R VSB 3/4
GRAND RAPIDS   FOG       34  34 100 N3        29.58S VSB 3/4
CRANE LAKE     CLOUDY    32  32 100 CALM      29.60S FOG
ORR            FOG       34  30  86 CALM      29.56R VSB 1/2
COOK           FOG       34  34 100 CALM      29.58R VSB 3/4
WALKER         FOG       33  33  99 CALM      29.58R VSB 3/4
$$
MNZ012-019>021-037-220800-
   Northeast Minnesota

CITY           SKY/WX    TMP DP  RH WIND       PRES   REMARKS
DULUTH         CLOUDY    35  34  96 N5        29.54R WCI  31
ELY            CLOUDY    34  34 100 NE3       29.56R FOG
HIBBING        CLOUDY    32  32 100 NW5       29.56S FOG     WCI  27
EVELETH        CLOUDY    35  34  97 NW3       29.57R
DULUTH HARBOR  CLOUDY    34  34 100 N7        29.57S WCI  28
TWO HARBORS    CLOUDY    37  34  87 NE5       29.53S
SILVER BAY     CLOUDY    36  36 100 NE6       29.53S FOG
GRAND MARAIS     N/A     37  34  89 NE8       29.56S
G MARAIS ARPRT CLOUDY    30  28  93 NE8       29.54R FOG     WCI  23
$$
MNZ029>031-032-039>041-046>048-054>057-064-220800-
   West Central Minnesota

CITY           SKY/WX    TMP DP  RH WIND       PRES   REMARKS
FERGUS FALLS   FOG       34  34 100 CALM      29.63R VSB 1/2
WHEATON        FOG       39  39 100 CALM      29.61R VSB 1/2
MORRIS         FOG       34  34 100 NW3       29.57R VSB 1/2
ALEXANDRIA     FOG       33  33 100 N5        29.57S VSB 1/2 WCI  29
ELBOW LAKE     LGT SNOW  32  32 100 CALM      29.59R VSB 3/4
WADENA         FOG       32  32 100 CALM      29.57S VSB 1/2
GLENWOOD       FOG       34  34 100 NW3       29.57S VSB 1/2
APPLETON       FOG       34  34 100 CALM      29.59R VSB 1/2
ORTONVILLE     FOG       34  30  86 CALM      29.59R VSB 1/4
MADISON        FOG       36  36 100 W8        29.59R VSB 1/2
WILLMAR        CLOUDY    34  34 100 CALM      29.58S FOG
$$
MNZ033>034-036-042>043-049>051-058-059-220800-
   Central Minnesota

CITY           SKY/WX    TMP DP  RH WIND       PRES   REMARKS
ST CLOUD       FOG       34  34 100 CALM      29.56S VSB 3/4
SAUK CENTRE    FOG       33  33 100 N3        29.57R VSB 1/4
PAYNESVILLE    FOG       33  33 100 CALM      29.57S VSB 1/4
AITKIN         CLOUDY    36  34  93 CALM      29.56R FOG
PINE RIVER     CLOUDY    34  34 100 CALM      29.61R FOG
BRAINERD       FOG       33  33 100 CALM      29.57S VSB 1/4
STAPLES        FOG       32  32 100 CALM      29.58R VSB 1/2
LONG PRAIRIE   SNOW      32  32 100 CALM      29.57S VSB 1/2
LITTLE FALLS   FOG       32  32 100 CALM      29.58R VSB 1/4
LITCHFIELD     FOG       36  36 100 CALM      29.57R VSB 1/2
BUFFALO        FOG       34  33  97 NW3       29.57S VSB 1/4
MAPLE LAKE     FOG       35  35 100 NW3       29.57S VSB 1/2
HUTCHINSON     FOG       34  34 100 NW5       29.57S VSB 1/4 WCI  30
$$
MNZ037-044-045-052-053-220800-
   East Central Minnesota

CITY           SKY/WX    TMP DP  RH WIND       PRES   REMARKS
PRINCETON      FOG       36  34  93 NW3       29.56F VSB 1
MORA           FOG       34  32  93 CALM      29.57S VSB 1
CAMBRIDGE      FOG       36  36 100 CALM      29.54S VSB 1
RUSH CITY      CLOUDY    34  32  93 VRB3      29.55S FOG
MOOSE LAKE     FOG       34  32  93 N5        29.54S VSB 1   WCI  30
HINCKLEY       CLOUDY    34  34 100 NW3       29.56R FOG
CLOQUET        CLOUDY    34  34 100 CALM      29.55S FOG
MCGREGOR       CLOUDY    34  32  93 CALM      29.57R VSB 1/4
$$
MNZ071>073-080-081-089-090-097-098-220800-
   Southwest Minnesota

CITY           SKY/WX    TMP DP  RH WIND       PRES   REMARKS
MONTEVIDEO     FOG       34  34 100 CALM      29.59S VSB 1/4
GRANITE FALLS  FOG       34  34 100 NW7       29.59S VSB 1/4 WCI  28
CANBY          FOG       34  34 100 CALM      29.60R VSB 3/4
MARSHALL       FOG       33  33 100 NW9       29.58R VSB 1/2 WCI  25
REDWOOD FALLS  FOG       34  32  92 NW5       29.56S VSB 1/4 WCI  30
OLIVIA         FOG       34  34 100 CALM      29.56S VSB 1/2
PIPESTONE      CLOUDY    32  32 100 NW7       29.57R WCI  26
WINDOM         SNOW      34  34 100 W8        29.56R VSB 1/2 WCI  27
WORTHINGTON    CLOUDY    32  31  96 NW10      29.57R FOG     WCI  24
JACKSON        CLOUDY    32  32 100 W10       29.55S FOG     WCI  24
TRACY          FOG       34  34 100 NW7       29.57S VSB 1/2 WCI  28
SLAYTON        CLOUDY    32  32  99 W8        29.57S FOG     WCI  25
$$
MNZ065>067-074>077-082>085-091>093-220800-
   South Central Minnesota

CITY           SKY/WX    TMP DP  RH WIND       PRES   REMARKS
MANKATO        FOG       34  33  96 W6        29.55S VSB 1/4 WCI  29
NEW ULM        FOG       34  34 100 CALM      29.55S VSB 1/4
ST JAMES       FOG       34  34 100 W7        29.56S VSB 1/2 WCI  28
FAIRMONT       CLOUDY    33  32  96 W8        29.55S FOG     WCI  26
GLENCOE        FOG       35  35 100 NW5       29.56R VSB 1/2 WCI  31
OWATONNA       FOG       34  32  93 CALM      29.55R VSB 1/2
WASECA         FOG       32  32 100 SW5       29.56R VSB 1/4 WCI  27
ALBERT LEA     CLOUDY    32  32 100 CALM      29.54R FOG
$$
MNZ078>079-086>088-094>096-220800-
   Southeast Minnesota

CITY           SKY/WX    TMP DP  RH WIND       PRES   REMARKS
ROCHESTER      CLOUDY    33  33 100 W6        29.54R FOG     WCI  28
RED WING       FOG       36  34  93 CALM      29.55R VSB 1/4
STANTON        FOG       34  33  95 N3        29.54R VSB 1/2
DODGE CENTER   FOG       34  34 100 CALM      29.54R VSB 1/4
WINONA         CLOUDY    34  34 100 CALM      29.56S FOG
AUSTIN         CLOUDY    34  32  93 CALM      29.54S FOG
PRESTON        CLOUDY    33  33  98 W6        29.54S WCI  28
$$
ABBREVIATIONS USED IN REMARKS
   TC - TEMPERATURES IN CELSIUS
  WCI - WIND CHILL INDEX
   HX - HEAT INDEX
  VSB - VISIBILITY
$$




USA.gov is the U.S. government's official web portal to all federal, state and local government web resources and services.